{"data":{"norad_id":65089,"intl_designator":"2025-167M","name":"STARLINK-34665","alt_names":[],"object_type":"PAYLOAD","status":"ACTIVE","operator":null,"country":"US","launch_date":"2025-08-04","launch_site_code":"AFETR","launch_vehicle":null,"mission":null,"orbit_class":"UNKNOWN","rcs_meters":null,"size_class":null,"mass_kg":null,"dimensions":null,"purposes":["comms"],"wikipedia_slug":null,"has_3d_model":false,"image_url":null,"decayed_at":null,"tle_current":{"epoch":"2026-05-24T23:03:45.108000Z","epoch_age_seconds":74418,"freshness":"FRESH","line1":"1 65089U 25167M   26144.96093875  .00006560  00000+0  23345-3 0  9999","line2":"2 65089  53.1601  32.6518 0001198  49.3230 310.7875 15.30196058 45155","mean_motion":15.30196058,"eccentricity":0.0001198,"inclination_deg":53.1601,"raan_deg":32.6518,"arg_perigee_deg":49.323,"mean_anomaly_deg":310.7875,"bstar":0.00023345,"rev_number":4515,"period_min":94.105588135034,"perigee_km":474.40580655806,"apogee_km":476.04787253402,"semimajor_km":6853.363839546,"source":"CELESTRAK","updated_at":"2026-05-25T13:38:20.684414Z"}}}